Skip Page Navigation
NASA JPL Caltech
NASA Logo - Jet Propulsion Laboratory + View the NASA Portal
+ Center for Near-Earth Object Studies
JPL Home Earth Solar System Stars & Galaxies Technology
JPL Solar System Dynamics
BODIES ORBITS EPHEMERIDES TOOLS PHYSICAL DATA DISCOVERY FAQ SITE MAP
JPL Small-Body Database Browser
Search: [ help ]  
183702 (2003 YX36)
Classification: Main-belt Asteroid          SPK-ID: 2183702
Ephemeris | Orbit Diagram | Orbital Elements | Mission Design | Physical Parameters | Discovery Circumstances ]

[ show orbit diagram ]
Orbital Elements at Epoch 2459000.5 (2020-May-31.0) TDB
Reference: JPL 13 (heliocentric ecliptic J2000)
 Element Value Uncertainty (1-sigma)   Units 
e .163132855825115 5.4797e-08  
a 2.344747073532563 1.2673e-08 au
q 1.962241787239615 1.252e-07 au
i 2.464429734100495 5.3439e-06 deg
node 20.33852834494991 0.00011732 deg
peri 201.4461040011382 0.00011915 deg
M 111.4786114188258 1.7666e-05 deg
tp 2458594.401411184427
(2019-Apr-20.90141118)
6.4779e-05 TDB
period 1311.421896208851
3.59
1.0632e-05
2.911e-08
d
yr
n .2745112011936912 2.2255e-09 deg/d
Q 2.727252359825511 1.474e-08 au
  Orbit Determination Parameters
   # obs. used (total)      338  
   data-arc span      8701 days (23.82 yr)  
   first obs. used      1995-10-02  
   last obs. used      2019-07-29  
   planetary ephem.      DE431  
   SB-pert. ephem.      SB431-N16  
   condition code      0  
   norm. resid. RMS      .65422  
   source      ORB  
   producer      Otto Matic  
   solution date      2020-Feb-24 19:40:21  

Additional Information
 Earth MOID = .954137 au 
 Jupiter MOID = 2.25017 au 
 T_jup = 3.543 
[ hide covariance matrix ]
Orbital Elements at Epoch 2457220.5 (2015-Jul-17.0) TDB
Reference: JPL 13 (heliocentric ecliptic J2000)
 Element Value Uncertainty (1-sigma)   Units 
e .1625372828042716 5.4894e-08  
q 1.964066333536223 1.2534e-07 au
tp 2457282.109755661588
(2015-Sep-16.60975566)
6.7506e-05 TDB
node 20.38814390768979 0.00011725 deg
peri 201.3805603190891 0.00011908 deg
i 2.46526577801157 5.3442e-06 deg
  Orbit Determination Parameters
   # obs. used (total)      338  
   data-arc span      8701 days (23.82 yr)  
   first obs. used      1995-10-02  
   last obs. used      2019-07-29  
   planetary ephem.      DE431  
   SB-pert. ephem.      SB431-N16  
   condition code      0  
   norm. resid. RMS      .65422  
   source      ORB  
   producer      Otto Matic  
   solution date      2020-Feb-24 19:40:21  

Additional Information
 Jupiter MOID = 2.25017 au 
 T_jup = 3.543 
Orbit Covariance (6×6)
  e q tp node peri i
e 3.013336689333594E-15 -6.85907947219135E-15 1.022193645426687E-13 5.947457508759195E-14 8.629300121987336E-14 -3.189177190971954E-15
q -6.85907947219135E-15 1.571121818465573E-14 -4.55276142884164E-13 -1.391485711322756E-13 -2.636982220597249E-13 7.245446111933869E-15
tp 1.022193645426687E-13 -4.55276142884164E-13 4.55708082228951E-9 5.11384549764899E-11 1.430176077633566E-9 3.062340559106986E-12
node 5.947457508759195E-14 -1.391485711322756E-13 5.11384549764899E-11 1.374710054666873E-8 -1.371412151530293E-8 -2.240478101105777E-11
peri 8.629300121987336E-14 -2.636982220597249E-13 1.430176077633566E-9 -1.371412151530293E-8 1.418119422151828E-8 2.32343952638882E-11
i -3.189177190971954E-15 7.245446111933869E-15 3.062340559106986E-12 -2.240478101105777E-11 2.32343952638882E-11 2.856099255136372E-11

Ephemeris | Orbit Diagram | Orbital Elements | Mission Design | Physical Parameters | Discovery Circumstances ]

Physical Parameter Table
Parameter Symbol Value Units Sigma Reference Notes
absolute magnitude H 17.1   n/a MPO475548  

183702 (2003 YX36)          Discovered 2003-Dec-17 by Spacewatch at Kitt Peak
Reference: 20080420/Numbers.arcLast Updated: 2008-04-23
Ephemeris | Orbit Diagram | Orbital Elements | Mission Design | Physical Parameters | Discovery Circumstances ]
ABOUT SSD CREDITS/AWARDS PRIVACY/COPYRIGHT GLOSSARY LINKS
FirstGov 2020-Aug-08 23:36 UT
(server date/time)  
NASA Home Page
Site Manager:   Ryan S. Park
Webmaster  Alan B. Chamberlin